Weather History for La Crosse, WI

Change the Weather History Date:

Tuesday, June 5, 2012

  Actual Average Record
Temperature  
Mean Temperature 70 °F 66 °F  
Max Temperature 80 °F 77 °F 93 °F (1934)
Min Temperature 59 °F 55 °F 40 °F (1945)
Degree Days  
Heating Degree Days 0 2  
Month to date heating degree days 11 14  
Since 1 June heating degree days 11  
Since 1 July heating degree days 5777 7171  
Cooling Degree Days 5 3  
Month to date cooling degree days 12 15  
Year to date cooling degree days 120 63  
Since 1 June cooling degree days 12  
Growing Degree Days 20 (Base 50)    
Moisture  
Dew Point 54 °F    
Average Humidity 65    
Maximum Humidity 93    
Minimum Humidity 36    
Precipitation  
Precipitation 0.00 in 0.15 in 1.55 in (1980)
Month to date precipitation 0.06 0.69  
Year to date precipitation 11.60 11.76  
Snow  
Snow 0.00 in 0.00 in 0.00 in (2002)
Month to date snowfall 0.0 0.0  
Since 1 June snowfall 0.0  
Since 1 July snowfall 21.5 43.3  
Snow Depth 0.00 in    
Sea Level Pressure  
Sea Level Pressure 29.97 in    
Wind  
Wind Speed 6 mph (ESE)    
Max Wind Speed 13 mph    
Max Gust Speed 23 mph    
Visibility 10 miles    
Events      
T = Trace of Precipitation, MM = Missing Value Source: NWS Daily Summary

Daily Weather History Graph

Daily Weather History Graph

Search for Another Location

Airport:

Trip Planner

Search our weather history database for the weather conditions in past years. The results will help you decide how hot, cold, wet, or windy it might be!

Date:

Astronomy

Jun. 05, 2012 Rise Set
Actual Time 5:23 AM CDT 8:43 PM CDT
Civil Twilight 4:48 AM CDT 9:19 PM CDT
Nautical Twilight 4:01 AM CDT 10:06 PM CDT
Astronomical Twilight 3:04 AM CDT 11:03 PM CDT
Moon 10:07 PM CDT (6/5) 6:36 AM CDT (6/5)
Length of Visible Light 16h 31m
Length of Day
15h 20m
Full, 98% of the Moon is Illuminated
Jun 5
Full
Jun 11
Last Quarter
Jun 19
New
Jun 26
First Quarter
Jul 3
Full

Hourly Weather History & Observations

Time (CDT) Temp. Dew Point Humidity Pressure Visibility Wind Dir Wind Speed Gust Speed Precip Events Conditions
12:53 AM 64.0 °F 60.1 °F 87% 29.91 in 10.0 mi Calm Calm - N/A   Partly Cloudy
1:53 AM 63.0 °F 61.0 °F 93% 29.92 in 10.0 mi Calm Calm - N/A   Scattered Clouds
2:53 AM 63.0 °F 57.9 °F 84% 29.93 in 10.0 mi East 5.8 mph - N/A   Partly Cloudy
3:53 AM 62.1 °F 57.9 °F 86% 29.94 in 10.0 mi East 3.5 mph - N/A   Partly Cloudy
4:53 AM 60.1 °F 57.0 °F 90% 29.96 in 10.0 mi ESE 4.6 mph - N/A   Scattered Clouds
5:53 AM 60.1 °F 57.0 °F 90% 29.98 in 10.0 mi East 5.8 mph - N/A   Mostly Cloudy
6:53 AM 60.1 °F 57.0 °F 90% 29.99 in 10.0 mi ESE 4.6 mph - N/A   Clear
7:53 AM 64.0 °F 57.0 °F 78% 30.01 in 10.0 mi East 5.8 mph - N/A   Clear
8:53 AM 68.0 °F 55.0 °F 63% 29.99 in 10.0 mi ESE 5.8 mph - N/A   Clear
9:53 AM 73.0 °F 51.1 °F 46% 30.01 in 10.0 mi SSE 8.1 mph - N/A   Clear
10:53 AM 75.0 °F 52.0 °F 44% 30.01 in 10.0 mi ESE 6.9 mph - N/A   Clear
11:53 AM 75.9 °F 46.9 °F 36% 30.00 in 10.0 mi SE 8.1 mph - N/A   Clear
12:53 PM 77.0 °F 48.9 °F 37% 29.99 in 10.0 mi SSE 3.5 mph - N/A   Clear
1:53 PM 75.9 °F 51.1 °F 42% 29.97 in 10.0 mi ESE 5.8 mph - N/A   Partly Cloudy
2:53 PM 77.0 °F 52.0 °F 42% 29.96 in 10.0 mi Variable 6.9 mph - N/A   Mostly Cloudy
3:53 PM 77.0 °F 53.1 °F 43% 29.96 in 10.0 mi ESE 6.9 mph - N/A   Partly Cloudy
4:53 PM 79.0 °F 53.1 °F 40% 29.96 in 10.0 mi ESE 8.1 mph - N/A   Clear
5:53 PM 77.0 °F 53.1 °F 43% 29.95 in 10.0 mi SE 9.2 mph - N/A   Clear
6:53 PM 75.0 °F 53.1 °F 46% 29.95 in 10.0 mi East 8.1 mph 17.3 mph N/A   Clear
7:53 PM 73.0 °F 53.1 °F 49% 29.96 in 10.0 mi East 8.1 mph - N/A   Clear
8:53 PM 69.1 °F 53.1 °F 57% 29.98 in 10.0 mi ESE 4.6 mph - N/A   Clear
9:53 PM 66.9 °F 54.0 °F 63% 29.99 in 10.0 mi SE 8.1 mph - N/A   Clear
10:53 PM 66.0 °F 54.0 °F 65% 30.00 in 10.0 mi SE 4.6 mph - N/A   Clear
11:53 PM 64.0 °F 54.0 °F 70% 30.01 in 10.0 mi SE 3.5 mph - N/A   Clear